sat.trackr.live / text

‹ back to catalog

STARLINK-30429

NORAD 57876 · 2023-144N

PAYLOAD ACTIVE UNKNOWN

§ Identity

Operator
Country
US
Launch date
2023-09-16
Launch site
AFETR
Launch vehicle
Mass (kg)
RCS (m²)

Purposes: comms

External: N2YO · Heavens-Above · Gunter

§ Orbital elements

Epoch: 2026-05-25T04:32:12.511680Z

Period
94.27 min
Inclination
43.0030°
Eccentricity
0.0001579
Mean motion
15.27577594 rev/d
Perigee alt
482.0 km
Apogee alt
484.1 km
Semi-major
6,861.2 km
B*
3.2158e-5
RAAN
213.4677°
Arg perigee
273.9999°
Mean anomaly
86.0673°
Rev number
14,933

§ Raw data

STARLINK-304291 57876U 23144N   26145.18903370  .00000623  00000+0  32158-4 0  99992 57876  43.0030 213.4677 0001579 273.9999  86.0673 15.27577594149337

JSON: /api/v1/satellites/57876 · /tle

For live sub-satellite position, see the globe view (requires WebGL).

§ Visibility from observer

Set your observer location to see the next 7 days of passes ≥ 10°. The values pass through the URL so the page stays shareable.

No JS? Fill the form by hand. The geolocation button needs JavaScript.